START_TIME,STEP,MOV.,M15,t_acc.,M20,t_acc.
1979-03-03 09:00:33.390 ,2,1,0.,24.0,0.,24.0
1979-03-03 09:00:57.390 ,1,1,0.,24.0,0.,24.0
1979-03-03 09:01:21.390 ,0,1,0.,24.0,0.,24.0
1979-03-03 09:01:45.390 ,0,1,0.,24.0,0.,24.0
1979-03-03 09:02:09.390 ,1,1,2.,24.0,0.,24.0
1979-03-03 09:02:33.390 ,2,1,0.,24.0,0.,24.0
1979-03-03 09:02:57.390 ,3,1,0.,24.0,0.,24.0
1979-03-03 09:03:21.390 ,4,1,0.,24.0,0.,24.0
1979-03-03 09:03:45.390 ,5,1,0.,24.0,0.,24.0
1979-03-03 09:04:09.390 ,6,1,0.,24.0,0.,24.0
1979-03-03 09:04:33.390 ,7,1,0.,24.0,0.,24.0
1979-03-03 09:04:57.390 ,7,1,0.,24.0,0.,24.0
1979-03-03 09:05:21.390 ,6,1,0.,24.0,0.,24.0
1979-03-03 09:05:45.390 ,5,1,0.,24.0,0.,24.0
1979-03-03 09:06:09.390 ,4,1,0.,24.0,0.,24.0
1979-03-03 09:06:33.390 ,3,1,0.,24.0,0.,24.0
1979-03-03 09:06:57.390 ,2,1,0.,24.0,0.,24.0
1979-03-03 09:07:21.390 ,1,1,0.,24.0,0.,24.0
1979-03-03 09:07:45.390 ,0,1,0.,24.0,0.,24.0
1979-03-03 09:08:09.390 ,0,1,0.,24.0,0.,24.0
1979-03-03 09:08:33.390 ,1,1,0.,24.0,0.,24.0
1979-03-03 09:08:57.390 ,2,1,0.,24.0,0.,24.0
1979-03-03 09:09:21.390 ,3,1,0.,24.0,0.,24.0
1979-03-03 09:09:45.390 ,4,1,0.,24.0,0.,24.0
1979-03-03 09:10:09.390 ,5,1,0.,24.0,0.,24.0
1979-03-03 09:10:33.390 ,6,1,0.,24.0,0.,24.0
1979-03-03 09:10:57.390 ,7,1,0.,24.0,0.,24.0
1979-03-03 09:11:21.390 ,7,1,0.,24.0,0.,24.0
1979-03-03 09:11:45.390 ,6,1,0.,24.0,0.,24.0
1979-03-03 09:12:09.390 ,5,1,0.,24.0,0.,24.0
1979-03-03 09:12:33.390 ,4,1,0.,24.0,0.,24.0
1979-03-03 09:12:57.390 ,3,1,0.,24.0,0.,24.0
1979-03-03 09:13:21.390 ,2,1,0.,24.0,0.,24.0
1979-03-03 09:13:45.390 ,1,1,0.,24.0,0.,24.0
1979-03-03 09:14:09.390 ,0,1,0.,24.0,0.,24.0
1979-03-03 09:14:33.390 ,0,1,0.,24.0,0.,24.0
1979-03-03 09:14:57.390 ,1,1,0.,24.0,0.,24.0
1979-03-03 09:15:21.390 ,0,0,1.,24.0,0.,24.0
1979-03-03 09:15:45.390 ,0,0,0.,24.0,0.,24.0
1979-03-03 09:16:09.390 ,4,1,0.,24.0,0.,24.0
1979-03-03 09:16:33.390 ,5,1,0.,24.0,0.,24.0
1979-03-03 09:16:57.390 ,6,1,0.,24.0,0.,24.0
1979-03-03 09:17:21.390 ,7,1,0.,24.0,0.,24.0
1979-03-03 09:17:45.390 ,7,1,0.,24.0,0.,24.0
1979-03-03 09:18:09.390 ,6,1,0.,24.0,0.,24.0
1979-03-03 09:18:33.390 ,5,1,0.,24.0,0.,24.0
1979-03-03 09:18:57.390 ,4,1,0.,24.0,0.,24.0
1979-03-03 09:19:21.390 ,3,1,0.,24.0,0.,24.0
1979-03-03 09:19:45.390 ,2,1,0.,24.0,0.,24.0
1979-03-03 09:20:09.390 ,1,1,0.,24.0,0.,24.0
1979-03-03 09:20:33.390 ,0,1,0.,24.0,0.,24.0
1979-03-03 09:20:57.390 ,0,1,0.,24.0,0.,24.0
1979-03-03 09:21:21.390 ,1,1,0.,24.0,0.,24.0
1979-03-03 09:21:45.390 ,2,1,0.,24.0,0.,24.0
1979-03-03 09:22:09.390 ,3,1,0.,24.0,0.,24.0
1979-03-03 09:22:33.390 ,4,1,0.,24.0,0.,24.0
1979-03-03 09:22:57.390 ,5,1,0.,24.0,0.,24.0
1979-03-03 09:23:21.390 ,6,1,0.,24.0,0.,24.0
1979-03-03 09:23:45.390 ,7,1,1.,24.0,0.,24.0
1979-03-03 09:24:09.390 ,7,1,0.,24.0,0.,24.0
1979-03-03 09:24:33.390 ,6,1,0.,24.0,0.,24.0
1979-03-03 09:24:57.390 ,5,1,0.,24.0,0.,24.0
1979-03-03 09:25:21.390 ,4,1,0.,24.0,0.,24.0
1979-03-03 09:25:45.390 ,3,1,0.,24.0,0.,24.0
1979-03-03 09:26:09.390 ,2,1,0.,24.0,0.,24.0
1979-03-03 09:26:33.390 ,1,1,0.,24.0,0.,24.0
1979-03-03 09:26:57.390 ,0,1,0.,24.0,0.,24.0
1979-03-03 09:27:21.390 ,0,1,0.,24.0,0.,24.0
1979-03-03 09:27:45.390 ,1,1,0.,24.0,0.,24.0
1979-03-03 09:28:09.390 ,2,1,0.,24.0,0.,24.0
1979-03-03 09:28:33.390 ,3,1,0.,24.0,0.,24.0
1979-03-03 09:28:57.390 ,4,1,0.,24.0,0.,24.0
1979-03-03 09:29:21.390 ,5,1,0.,24.0,0.,24.0
1979-03-03 09:29:45.390 ,6,1,0.,24.0,0.,24.0
1979-03-03 09:30:09.390 ,7,1,0.,24.0,0.,24.0
1979-03-03 09:30:33.390 ,7,1,0.,24.0,0.,24.0
1979-03-03 09:30:57.390 ,6,1,0.,24.0,0.,24.0
1979-03-03 09:31:21.390 ,5,1,0.,24.0,0.,24.0
1979-03-03 09:31:45.390 ,4,1,0.,24.0,0.,24.0
1979-03-03 09:32:09.390 ,3,1,0.,24.0,0.,24.0
1979-03-03 09:32:33.390 ,2,1,0.,24.0,0.,24.0
1979-03-03 09:32:57.390 ,1,1,0.,24.0,0.,24.0
1979-03-03 09:33:21.390 ,0,1,0.,24.0,0.,24.0
1979-03-03 09:33:45.390 ,0,1,0.,24.0,0.,24.0
1979-03-03 09:34:09.390 ,1,1,0.,24.0,0.,24.0
1979-03-03 09:34:33.390 ,2,1,1.,24.0,0.,24.0
1979-03-03 09:34:57.390 ,3,1,0.,24.0,0.,24.0
1979-03-03 09:35:21.390 ,4,1,0.,24.0,0.,24.0
1979-03-03 09:35:45.390 ,5,1,0.,24.0,0.,24.0
1979-03-03 09:36:09.390 ,6,1,0.,24.0,0.,24.0
1979-03-03 09:36:33.390 ,7,1,0.,24.0,0.,24.0
1979-03-03 09:36:57.390 ,7,1,0.,24.0,0.,24.0
1979-03-03 09:37:21.390 ,6,1,0.,24.0,0.,24.0
1979-03-03 09:37:45.390 ,5,1,0.,24.0,0.,24.0
1979-03-03 09:38:09.390 ,4,1,0.,24.0,0.,24.0
1979-03-03 09:38:33.390 ,3,1,0.,24.0,0.,24.0
1979-03-03 09:38:57.390 ,2,1,0.,24.0,0.,24.0
1979-03-03 09:39:21.390 ,1,1,0.,24.0,0.,24.0
1979-03-03 09:39:45.390 ,0,1,0.,24.0,0.,24.0
1979-03-03 09:40:09.390 ,0,1,0.,24.0,0.,24.0
1979-03-03 09:40:33.390 ,1,1,0.,24.0,0.,24.0
1979-03-03 09:40:57.390 ,2,1,0.,24.0,0.,24.0
1979-03-03 09:41:21.390 ,3,1,0.,24.0,0.,24.0
1979-03-03 09:42:33.390 ,0,0,0.,24.0,0.,24.0
1979-03-03 09:42:57.390 ,7,1,0.,24.0,0.,24.0
1979-03-03 09:43:21.390 ,7,1,0.,24.0,0.,24.0
1979-03-03 09:43:45.390 ,6,1,0.,24.0,0.,24.0
1979-03-03 09:44:09.390 ,5,1,0.,24.0,0.,24.0
1979-03-03 09:44:33.390 ,4,1,0.,24.0,0.,24.0
1979-03-03 09:44:57.390 ,3,1,1.,24.0,0.,24.0
1979-03-03 09:45:21.390 ,2,1,0.,24.0,0.,24.0
1979-03-03 09:45:45.390 ,1,1,0.,24.0,0.,24.0
1979-03-03 09:46:09.390 ,0,1,0.,24.0,0.,24.0
1979-03-03 09:46:33.390 ,0,1,0.,24.0,0.,24.0
1979-03-03 09:46:57.390 ,1,1,0.,24.0,0.,24.0
1979-03-03 09:47:21.390 ,2,1,0.,24.0,0.,24.0
1979-03-03 09:47:45.390 ,3,1,0.,24.0,0.,24.0
1979-03-03 09:48:09.390 ,4,1,1.,24.0,0.,24.0
1979-03-03 09:48:33.390 ,5,1,0.,24.0,0.,24.0
1979-03-03 09:48:57.390 ,6,1,0.,24.0,0.,24.0
1979-03-03 09:49:21.390 ,7,1,1.,24.0,0.,24.0
1979-03-03 09:49:45.390 ,7,1,0.,24.0,0.,24.0
1979-03-03 09:50:09.390 ,6,1,0.,24.0,0.,24.0
1979-03-03 09:50:33.390 ,5,1,0.,24.0,0.,24.0
1979-03-03 09:50:57.390 ,4,1,0.,24.0,0.,24.0
1979-03-03 09:51:21.390 ,3,1,0.,24.0,0.,24.0
1979-03-03 09:51:45.390 ,2,1,0.,24.0,0.,24.0
1979-03-03 09:52:09.390 ,1,1,0.,24.0,0.,24.0
1979-03-03 09:52:33.390 ,0,1,0.,24.0,0.,24.0
1979-03-03 09:52:57.390 ,0,1,1.,24.0,0.,24.0
1979-03-03 09:53:21.390 ,1,1,0.,24.0,0.,24.0
1979-03-03 09:53:45.390 ,2,1,0.,24.0,0.,24.0
1979-03-03 09:54:09.390 ,3,1,0.,24.0,0.,24.0
1979-03-03 09:54:33.390 ,4,1,0.,24.0,0.,24.0
1979-03-03 09:54:57.390 ,5,1,0.,24.0,0.,24.0
1979-03-03 09:55:21.390 ,6,1,0.,24.0,0.,24.0
1979-03-03 09:55:45.390 ,7,1,0.,24.0,0.,24.0
1979-03-03 09:56:09.390 ,7,1,0.,24.0,0.,24.0
1979-03-03 09:56:33.390 ,6,1,0.,24.0,0.,24.0
1979-03-03 09:56:57.390 ,5,1,1.,24.0,0.,24.0
1979-03-03 09:57:21.390 ,4,1,0.,24.0,0.,24.0
1979-03-03 09:57:45.390 ,3,1,0.,24.0,0.,24.0
1979-03-03 09:58:09.390 ,2,1,0.,24.0,0.,24.0
1979-03-03 09:58:33.390 ,1,1,0.,24.0,0.,24.0
1979-03-03 09:58:57.390 ,0,1,0.,24.0,0.,24.0
1979-03-03 09:59:21.390 ,0,1,0.,24.0,0.,24.0
1979-03-03 09:59:45.390 ,1,1,0.,24.0,0.,24.0
1979-03-03 10:00:09.390 ,2,1,0.,24.0,0.,24.0
1979-03-03 10:00:33.390 ,3,1,0.,24.0,0.,24.0
1979-03-03 10:00:57.390 ,4,1,0.,24.0,0.,24.0
1979-03-03 10:01:21.390 ,5,1,0.,24.0,0.,24.0
1979-03-03 10:01:45.390 ,6,1,0.,24.0,0.,24.0
1979-03-03 10:02:09.390 ,7,1,0.,24.0,0.,24.0
1979-03-03 10:02:33.390 ,7,1,0.,24.0,0.,24.0
1979-03-03 10:02:57.390 ,6,1,1.,24.0,0.,24.0
1979-03-03 10:03:21.390 ,5,1,1.,24.0,0.,24.0
1979-03-03 10:03:45.390 ,4,1,0.,24.0,0.,24.0
1979-03-03 10:04:09.390 ,3,1,0.,24.0,0.,24.0
1979-03-03 10:04:33.390 ,2,1,0.,24.0,0.,24.0
1979-03-03 10:04:57.390 ,1,1,0.,24.0,0.,24.0
1979-03-03 10:05:21.390 ,0,1,0.,24.0,0.,24.0
1979-03-03 10:05:45.390 ,0,1,0.,24.0,0.,24.0
1979-03-03 10:06:09.390 ,1,1,0.,24.0,0.,24.0
1979-03-03 10:06:33.390 ,2,1,0.,24.0,0.,24.0
1979-03-03 10:06:57.390 ,3,1,0.,24.0,0.,24.0
1979-03-03 10:07:21.390 ,4,1,0.,24.0,0.,24.0
1979-03-03 10:07:45.390 ,5,1,1.,24.0,0.,24.0
1979-03-03 10:08:09.390 ,6,1,0.,24.0,0.,24.0
1979-03-03 10:08:33.390 ,7,1,0.,24.0,0.,24.0
1979-03-03 10:08:57.390 ,7,1,0.,24.0,0.,24.0
1979-03-03 10:09:21.390 ,6,1,0.,24.0,0.,24.0
1979-03-03 10:09:45.390 ,5,1,0.,24.0,0.,24.0
1979-03-03 10:10:09.390 ,4,1,0.,24.0,0.,24.0
1979-03-03 10:10:33.390 ,3,1,0.,24.0,0.,24.0
1979-03-03 10:10:57.390 ,2,1,0.,24.0,0.,24.0
1979-03-03 10:11:21.390 ,1,1,0.,24.0,0.,24.0
1979-03-03 10:11:45.390 ,0,1,1.,24.0,0.,24.0
1979-03-03 10:12:09.390 ,0,1,0.,24.0,0.,24.0
1979-03-03 10:12:33.390 ,1,1,0.,24.0,0.,24.0
1979-03-03 10:12:57.390 ,2,1,0.,24.0,0.,24.0
1979-03-03 10:13:21.390 ,3,1,0.,24.0,0.,24.0
1979-03-03 10:13:45.390 ,4,1,0.,24.0,0.,24.0
1979-03-03 10:14:09.390 ,5,1,0.,24.0,0.,24.0
1979-03-03 10:14:33.390 ,6,1,0.,24.0,0.,24.0
1979-03-03 10:14:57.390 ,7,1,0.,24.0,0.,24.0
1979-03-03 10:15:21.390 ,7,1,0.,24.0,0.,24.0
1979-03-03 10:15:45.390 ,6,1,0.,24.0,0.,24.0
1979-03-03 10:16:09.390 ,5,1,1.,24.0,0.,24.0
1979-03-03 10:16:33.390 ,4,1,0.,24.0,0.,24.0
1979-03-03 10:16:57.390 ,3,1,0.,24.0,0.,24.0
1979-03-03 10:17:21.390 ,2,1,0.,24.0,0.,24.0
1979-03-03 10:17:45.390 ,1,1,0.,24.0,0.,24.0
1979-03-03 10:18:09.390 ,0,1,0.,24.0,0.,24.0
1979-03-03 10:18:33.390 ,0,1,0.,24.0,0.,24.0
1979-03-03 10:18:57.390 ,1,1,0.,24.0,0.,24.0
1979-03-03 10:19:21.390 ,2,1,0.,24.0,0.,24.0
1979-03-03 10:19:45.390 ,3,1,0.,24.0,0.,24.0
1979-03-03 10:20:09.390 ,4,1,0.,24.0,0.,24.0
1979-03-03 10:20:33.390 ,5,1,0.,24.0,0.,24.0
1979-03-03 10:20:57.390 ,6,1,0.,24.0,0.,24.0
1979-03-03 10:21:21.390 ,7,1,0.,24.0,0.,24.0
1979-03-03 10:21:45.390 ,7,1,1.,24.0,0.,24.0
1979-03-03 10:22:09.390 ,6,1,0.,24.0,0.,24.0
1979-03-03 10:22:33.390 ,5,1,0.,24.0,0.,24.0
1979-03-03 10:22:57.390 ,4,1,0.,24.0,0.,24.0
1979-03-03 10:23:21.390 ,3,1,0.,24.0,0.,24.0
1979-03-03 10:23:45.390 ,2,1,0.,24.0,0.,24.0
1979-03-03 10:24:09.390 ,1,1,0.,24.0,0.,24.0
1979-03-03 10:24:33.390 ,0,1,0.,24.0,0.,24.0
1979-03-03 10:24:57.390 ,0,1,0.,24.0,0.,24.0
1979-03-03 10:25:21.390 ,1,1,0.,24.0,0.,24.0
1979-03-03 10:25:45.390 ,2,1,0.,24.0,0.,24.0
1979-03-03 10:26:09.390 ,3,1,0.,24.0,0.,24.0
1979-03-03 10:26:33.390 ,4,1,0.,24.0,0.,24.0
1979-03-03 10:26:57.390 ,5,1,0.,24.0,0.,24.0
1979-03-03 10:27:21.390 ,6,1,0.,24.0,0.,24.0
1979-03-03 10:27:45.390 ,7,1,0.,24.0,0.,24.0
1979-03-03 10:28:09.390 ,7,1,0.,24.0,0.,24.0
1979-03-03 10:28:33.390 ,6,1,0.,24.0,0.,24.0
1979-03-03 10:28:57.390 ,5,1,0.,24.0,0.,24.0
1979-03-03 10:29:21.390 ,4,1,0.,24.0,0.,24.0
1979-03-03 10:29:45.390 ,3,1,0.,24.0,0.,24.0
1979-03-03 10:30:09.390 ,2,1,0.,24.0,0.,24.0
1979-03-03 10:30:33.390 ,1,1,0.,24.0,0.,24.0
1979-03-03 10:30:57.390 ,0,1,0.,24.0,0.,24.0
1979-03-03 10:31:21.390 ,0,1,0.,24.0,0.,24.0
1979-03-03 10:31:45.390 ,1,1,0.,24.0,0.,24.0
1979-03-03 10:32:09.390 ,2,1,0.,24.0,0.,24.0
1979-03-03 10:32:33.390 ,3,1,0.,24.0,0.,24.0
1979-03-03 10:32:57.390 ,4,1,0.,24.0,0.,24.0
1979-03-03 10:33:21.390 ,5,1,0.,24.0,0.,24.0
1979-03-03 10:33:45.390 ,6,1,0.,24.0,0.,24.0
1979-03-03 10:34:09.390 ,7,1,0.,24.0,0.,24.0
1979-03-03 10:34:33.390 ,7,1,0.,24.0,0.,24.0
1979-03-03 10:34:57.390 ,6,1,0.,24.0,0.,24.0
1979-03-03 10:35:21.390 ,5,1,0.,24.0,0.,24.0
1979-03-03 10:35:45.390 ,4,1,0.,24.0,0.,24.0
1979-03-03 10:36:09.390 ,3,1,0.,24.0,0.,24.0
1979-03-03 10:36:33.390 ,2,1,0.,24.0,0.,24.0
1979-03-03 10:36:57.390 ,1,1,0.,24.0,0.,24.0
1979-03-03 10:37:21.390 ,0,1,0.,24.0,0.,24.0
1979-03-03 10:37:45.390 ,0,1,0.,24.0,0.,24.0
1979-03-03 10:38:09.390 ,1,1,1.,24.0,0.,24.0
1979-03-03 10:38:33.390 ,2,1,0.,24.0,0.,24.0
1979-03-03 10:38:57.390 ,3,1,0.,24.0,0.,24.0
1979-03-03 10:39:21.390 ,4,1,0.,24.0,0.,24.0
1979-03-03 10:39:45.390 ,5,1,0.,24.0,0.,24.0
1979-03-03 10:40:09.390 ,6,1,0.,24.0,0.,24.0
1979-03-03 10:40:33.390 ,7,1,0.,24.0,0.,24.0
1979-03-03 10:40:57.390 ,7,1,0.,24.0,0.,24.0
1979-03-03 10:41:21.390 ,6,1,0.,24.0,0.,24.0
1979-03-03 10:41:45.390 ,5,1,0.,24.0,0.,24.0
1979-03-03 10:42:09.390 ,4,1,0.,24.0,0.,24.0
1979-03-03 10:42:33.390 ,3,1,0.,24.0,0.,24.0
1979-03-03 10:42:57.390 ,2,1,0.,24.0,0.,24.0
1979-03-03 10:43:21.390 ,1,1,0.,24.0,0.,24.0
1979-03-03 10:43:45.390 ,0,1,1.,24.0,0.,24.0
1979-03-03 10:44:09.390 ,0,1,0.,24.0,0.,24.0
1979-03-03 10:44:33.390 ,1,1,0.,24.0,0.,24.0
1979-03-03 10:44:57.390 ,2,1,0.,24.0,0.,24.0
1979-03-03 10:45:21.390 ,3,1,0.,24.0,0.,24.0
1979-03-03 10:45:45.390 ,4,1,0.,24.0,0.,24.0
1979-03-03 10:46:09.390 ,5,1,0.,24.0,0.,24.0
1979-03-03 10:46:33.390 ,6,1,0.,24.0,0.,24.0
1979-03-03 10:46:57.390 ,7,1,0.,24.0,0.,24.0
1979-03-03 10:47:21.390 ,7,1,0.,24.0,0.,24.0
1979-03-03 10:47:45.390 ,6,1,0.,24.0,0.,24.0
1979-03-03 10:48:09.390 ,5,1,0.,24.0,0.,24.0
1979-03-03 10:48:33.390 ,4,1,0.,24.0,0.,24.0
1979-03-03 10:48:57.390 ,3,1,0.,24.0,0.,24.0
1979-03-03 10:49:21.390 ,2,1,0.,24.0,0.,24.0
1979-03-03 10:49:45.390 ,1,1,0.,24.0,0.,24.0
1979-03-03 10:50:09.390 ,0,1,0.,24.0,0.,24.0
1979-03-03 10:50:33.390 ,0,1,0.,24.0,0.,24.0
1979-03-03 10:50:57.390 ,1,1,0.,24.0,0.,24.0
1979-03-03 10:51:21.390 ,2,1,1.,24.0,0.,24.0
1979-03-03 10:51:45.390 ,3,1,0.,24.0,0.,24.0
1979-03-03 10:52:09.390 ,4,1,0.,24.0,0.,24.0
1979-03-03 10:52:33.390 ,5,1,0.,24.0,0.,24.0
1979-03-03 10:52:57.390 ,0,0,0.,24.0,0.,24.0
1979-03-03 10:53:21.390 ,7,1,0.,24.0,0.,24.0
1979-03-03 10:53:45.390 ,7,1,1.,24.0,0.,24.0
1979-03-03 10:54:09.390 ,6,1,0.,24.0,0.,24.0
1979-03-03 10:54:33.390 ,5,1,0.,24.0,0.,24.0
1979-03-03 10:54:57.390 ,4,1,0.,24.0,0.,24.0
1979-03-03 10:55:21.390 ,3,1,0.,24.0,0.,24.0
1979-03-03 10:55:45.390 ,2,1,0.,24.0,0.,24.0
1979-03-03 10:56:09.390 ,1,1,0.,24.0,0.,24.0
1979-03-03 10:56:33.390 ,0,1,0.,24.0,0.,24.0
1979-03-03 10:56:57.390 ,0,1,0.,24.0,0.,24.0
1979-03-03 10:57:21.390 ,1,1,0.,24.0,0.,24.0
1979-03-03 10:57:45.390 ,2,1,0.,24.0,0.,24.0
1979-03-03 10:58:09.390 ,3,1,0.,24.0,0.,24.0
1979-03-03 10:58:33.390 ,4,1,0.,24.0,0.,24.0
1979-03-03 10:58:57.390 ,5,1,0.,24.0,0.,24.0
1979-03-03 10:59:21.390 ,6,1,0.,24.0,0.,24.0
1979-03-03 10:59:45.390 ,7,1,0.,24.0,0.,24.0
1979-03-03 11:00:09.390 ,7,1,0.,24.0,0.,24.0
1979-03-03 11:00:33.390 ,6,1,0.,24.0,0.,24.0
1979-03-03 11:00:57.390 ,5,1,0.,24.0,0.,24.0
1979-03-03 11:01:21.390 ,4,1,0.,24.0,0.,24.0
1979-03-03 11:01:45.390 ,3,1,0.,24.0,0.,24.0
1979-03-03 11:02:09.390 ,2,1,0.,24.0,0.,24.0
1979-03-03 11:02:33.390 ,1,1,0.,24.0,0.,24.0
1979-03-03 11:02:57.390 ,0,1,0.,24.0,0.,24.0
1979-03-03 11:03:21.390 ,0,1,0.,24.0,0.,24.0
1979-03-03 11:03:45.390 ,1,1,1.,24.0,0.,24.0
1979-03-03 11:04:09.390 ,2,1,0.,24.0,0.,24.0
1979-03-03 11:04:33.390 ,3,1,0.,24.0,0.,24.0
1979-03-03 11:04:57.390 ,4,1,0.,24.0,0.,24.0
1979-03-03 11:05:21.390 ,5,1,1.,24.0,0.,24.0
1979-03-03 11:05:45.390 ,6,1,0.,24.0,0.,24.0
1979-03-03 11:06:09.390 ,7,1,0.,24.0,0.,24.0
1979-03-03 11:06:33.390 ,7,1,0.,24.0,0.,24.0
1979-03-03 11:06:57.390 ,6,1,0.,24.0,0.,24.0
1979-03-03 11:07:21.390 ,5,1,0.,24.0,0.,24.0
1979-03-03 11:07:45.390 ,0,0,,0,,0
